Location: Borovka
(49.7741°N, 14.5280°E)
Time: 08:58:39
(UTC+00:00)

LilacSat-2 - Pass Details

Date: 22 March 2026
Orbit: 412 x 424 km, 97.5° (Epoch: 20 April)

Event Time Altitude Azimuth Distance (km) Brightness Sun altitude
Rises 18:28:01 0° 181° (S) 2,388 ? -12.0°
Reaches altitude 10° 18:30:05 10° 189° (S) 1,526 ? -12.3°
Maximum altitude 18:33:12 40° 261° (W) 648 ? -12.8°
Drops below altitude 10° 18:36:20 10° 333° (NNW) 1,537 ? -13.3°
Sets 18:38:25 0° 341° (NNW) 2,407 ? -13.6°
